Stations météo

réclame
Mon MeteoGroup
Wick Airport (AWS), Grande-Bretagne (3075): Température de l'air & dewpoint: 16.03.2019 06:00:00 - 22.03.2019 06:00:00 (GMT)Wick Airport (AWS), Grande-Bretagne (3075): Température de l'air -20cm: 16.03.2019 06:00:00 - 22.03.2019 06:00:00 (GMT)Wick Airport (AWS), Grande-Bretagne (3075): Vitesse du vent & gusts: 16.03.2019 06:00:00 - 22.03.2019 06:00:00 (GMT)Wick Airport (AWS), Grande-Bretagne (3075): Direction du vent: 16.03.2019 06:00:00 - 22.03.2019 06:00:00 (GMT)Wick Airport (AWS), Grande-Bretagne (3075): reduced air pressure: 16.03.2019 06:00:00 - 22.03.2019 06:00:00 (GMT)Wick Airport (AWS), Grande-Bretagne (3075): visibility: 16.03.2019 06:00:00 - 22.03.2019 06:00:00 (GMT)Wick Airport (AWS), Grande-Bretagne (3075): Quantités de précipitations: 16.03.2019 06:00:00 - 22.03.2019 06:00:00 (GMT)
Date & Time tt [°C] td [°C] tt -20cm [°C] ff [km/h] ff [knt] fx [km/h] fx [knt] dd ppp [hPa] vv [km] rr [mm]
22.03.2019 06:00:00 9,3 6,1 - 31 17 52 28 S 1010,9 19 0,0
22.03.2019 05:00:00 9,3 6,1 - 22 12 52 28 SSE 1012,9 13 0,0
22.03.2019 04:00:00 9,7 6,6 - 31 17 48 26 S 1013,6 18 0,0
22.03.2019 03:00:00 9,8 7,9 - 35 19 54 29 SSE 1014,3 22 0,0
22.03.2019 02:00:00 9,5 7,9 - 31 17 55 30 SSE 1015,3 22 0,0
22.03.2019 01:00:00 9,0 7,7 - 39 21 55 30 SSE 1017,1 20 0,0
22.03.2019 00:00:00 8,5 7,6 - 39 21 57 31 SSE 1018,3 13 0,0
21.03.2019 23:00:00 7,9 7,2 - 26 14 - - SE 1020,5 13 0,0
21.03.2019 22:00:00 7,9 6,7 - 26 14 - - SSE 1021,7 14 0,0
21.03.2019 21:00:00 8,2 6,2 - 24 13 - - SSE 1023,8 27 0,0
21.03.2019 20:00:00 8,2 5,6 - 22 12 - - SE 1024,6 30 0,0
21.03.2019 19:00:00 8,1 4,5 - 16 9 - - SSE 1025,5 24 0,0
21.03.2019 18:00:00 8,0 4,2 - 16 9 - - SSE 1026,0 35 0,0
21.03.2019 17:00:00 8,2 4,3 - 13 7 - - SSE 1026,1 27 0,0
21.03.2019 16:00:00 9,9 5,2 - 15 8 - - S 1027,1 45 0,0
21.03.2019 15:00:00 10,3 5,7 - 8 4 - - S 1027,5 27 0,0
21.03.2019 14:00:00 9,3 5,6 - 18 10 - - S 1026,9 30 0,0
21.03.2019 13:00:00 10,2 5,1 - 15 8 - - S 1027,3 24 0,0
21.03.2019 12:00:00 10,3 3,0 - 11 6 - - W 1026,7 16 0,0
21.03.2019 11:00:00 10,0 3,8 - 15 8 - - W 1026,1 35 0,0
21.03.2019 10:00:00 8,8 5,7 - 16 9 - - W 1025,5 25 0,0
21.03.2019 09:00:00 7,3 6,0 6,0 8 4 - - SW 1024,7 20 0,0
21.03.2019 08:00:00 6,3 5,7 - 18 10 - - NW 1023,9 23 0,2
21.03.2019 07:00:00 6,6 6,3 - 21 11 - - WNW 1022,4 22 0,0
21.03.2019 06:00:00 6,9 6,6 - 18 10 - - WNW 1020,7 15 0,2
21.03.2019 05:00:00 7,6 7,3 - 21 11 - - WNW 1019,3 4,3 0,8
21.03.2019 04:00:00 8,7 7,8 - 24 13 - - WNW 1018,0 3,0 0,6
21.03.2019 03:00:00 10,5 9,4 - 26 14 - - SSW 1017,1 15 0,2
21.03.2019 02:00:00 10,4 9,3 - 26 14 - - SSW 1016,9 6 0,0
21.03.2019 01:00:00 10,8 9,3 - 26 14 - - SW 1016,7 17 0,0
21.03.2019 00:00:00 10,1 8,6 - 13 7 - - S 1016,6 35 0,0
20.03.2019 23:00:00 10,0 7,5 - 16 9 - - S 1016,4 13 0,0
20.03.2019 22:00:00 11,3 7,7 - 26 14 52 28 SSW 1015,9 50 0,0
20.03.2019 21:00:00 11,5 7,9 - 39 21 54 29 SSW 1015,2 45 0,0
20.03.2019 20:00:00 10,5 8,5 - 39 21 52 28 SSW 1015,3 45 0,0
20.03.2019 19:00:00 10,8 8,3 - 39 21 61 33 SSW 1015,0 50 0,0
20.03.2019 18:00:00 11,4 8,3 - 39 21 55 30 SSW 1015,2 45 0,0
20.03.2019 17:00:00 11,8 8,3 - 35 19 63 34 S 1015,5 35 0,0
20.03.2019 16:00:00 11,6 7,8 - 35 19 48 26 S 1016,7 30 0,0
20.03.2019 15:00:00 10,6 7,1 - 28 15 46 25 S 1017,8 35 0,0
20.03.2019 14:00:00 9,4 6,0 - 26 14 - - SSE 1019,1 25 0,0
20.03.2019 13:00:00 9,6 5,9 - 24 13 - - S 1020,2 21 0,0
20.03.2019 12:00:00 9,5 4,3 - 24 13 - - S 1021,1 12 0,0
20.03.2019 11:00:00 10,1 4,3 - 16 9 - - SSW 1021,4 12 0,0
20.03.2019 10:00:00 9,1 4,2 - 26 14 - - SW 1021,9 15 0,0
20.03.2019 09:00:00 8,1 4,5 5,2 21 11 - - S 1021,6 11 0,0
20.03.2019 08:00:00 8,0 3,5 - 22 12 - - SW 1021,2 16 0,0
20.03.2019 07:00:00 7,4 2,9 - 16 9 - - S 1021,3 18 0,0
20.03.2019 06:00:00 6,6 2,9 - 16 9 - - SW 1020,5 15 0,0
20.03.2019 05:00:00 5,3 2,9 - 8 4 - - S 1020,3 16 0,0
20.03.2019 04:00:00 5,9 3,5 - 15 8 - - SSW 1019,5 16 0,0
20.03.2019 03:00:00 6,1 4,2 - 8 4 - - SSW 1019,3 14 0,0
20.03.2019 02:00:00 7,1 5,2 - 22 12 - - SW 1018,9 10 0,0
20.03.2019 01:00:00 7,7 3,0 - 15 8 - - S 1018,8 15 0,0
20.03.2019 00:00:00 7,7 3,0 - 16 9 - - SW 1018,6 15 0,0
19.03.2019 23:00:00 8,5 4,1 - 8 4 - - S 1018,4 17 0,0
19.03.2019 22:00:00 8,2 4,2 - 5 3 - - SSW 1017,7 21 0,0
19.03.2019 21:00:00 7,4 4,4 - 15 8 - - WSW 1016,8 26 0,0
19.03.2019 20:00:00 9,1 5,6 - 29 16 - - WSW 1016,0 30 0,0
19.03.2019 19:00:00 9,4 5,9 - 28 15 46 25 WSW 1015,3 45 0,0
19.03.2019 18:00:00 10,6 7,6 - 35 19 48 26 SW 1014,5 50 0,0
19.03.2019 17:00:00 11,5 8,1 - 31 17 46 25 WSW 1014,1 45 0,0
19.03.2019 16:00:00 11,4 7,6 - 26 14 - - SW 1013,3 50 0,0
19.03.2019 15:00:00 11,9 8,2 - 24 13 - - SW 1013,3 30 0,0
19.03.2019 14:00:00 10,1 7,1 - 24 13 46 25 S 1013,5 30 0,0
19.03.2019 13:00:00 9,5 6,4 - 31 17 - - S 1013,5 40 0,0
19.03.2019 12:00:00 8,5 6,8 - 29 16 - - S 1013,8 22 0,0
19.03.2019 11:00:00 7,4 6,6 - 21 11 - - S 1014,4 28 0,2
19.03.2019 10:00:00 7,2 6,4 - 22 12 - - S 1015,2 10 0,6
19.03.2019 09:00:00 6,8 5,7 4,7 16 9 - - SSW 1015,7 12 0,8
19.03.2019 08:00:00 7,0 5,3 - 18 10 - - SSW 1015,8 35 0,0
19.03.2019 07:00:00 5,9 4,7 - 13 7 - - S 1016,2 45 0,0
19.03.2019 06:00:00 6,0 4,6 - 13 7 - - S 1016,1 50 0,0
19.03.2019 05:00:00 5,9 4,6 - 18 10 - - S 1016,3 50 0,0
19.03.2019 04:00:00 5,5 4,1 - 9 5 - - S 1016,6 45 0,0
19.03.2019 03:00:00 5,8 3,5 - 13 7 - - S 1016,9 50 0,0
19.03.2019 02:00:00 4,5 2,9 - 8 4 - - SW 1017,3 50 0,0
19.03.2019 01:00:00 4,7 3,1 - 13 7 - - SSW 1017,5 35 0,0
19.03.2019 00:00:00 4,9 3,2 - 4 2 - - SSW 1017,8 28 0,0
18.03.2019 23:00:00 5,6 3,6 - 13 7 - - S 1017,9 28 0,0
18.03.2019 22:00:00 6,2 4,3 - 11 6 - - S 1017,7 15 0,0
18.03.2019 21:00:00 6,6 3,5 - 15 8 - - SSE 1017,6 22 0,0
18.03.2019 20:00:00 6,3 2,8 - 11 6 - - SE 1017,6 15 0,0
18.03.2019 19:00:00 6,3 2,0 - 15 8 - - SSE 1017,5 30 0,0
18.03.2019 18:00:00 6,5 2,3 - 18 10 - - SSE 1017,0 29 0,0
18.03.2019 17:00:00 7,0 2,6 - 16 9 - - SSE 1016,5 35 0,0
18.03.2019 16:00:00 7,4 2,5 - 18 10 - - SSE 1016,1 24 0,0
18.03.2019 15:00:00 7,9 2,0 - 21 11 - - SSE 1015,9 24 0,0
18.03.2019 14:00:00 7,8 2,9 - 16 9 - - SSE 1015,6 22 0,0
18.03.2019 13:00:00 7,6 1,3 - 18 10 - - S 1015,2 23 0,0
18.03.2019 12:00:00 6,7 1,8 - 16 9 - - SSE 1014,9 18 0,0
18.03.2019 11:00:00 7,4 0,5 - 11 6 - - SSE 1014,6 17 0,0
18.03.2019 10:00:00 7,4 -0,7 - 4 2 - - S 1014,1 35 0,0
18.03.2019 09:00:00 4,0 0,0 4,5 4 2 - - SW 1013,4 35 0,0
18.03.2019 08:00:00 1,3 -1,1 - 8 4 - - W 1013,0 35 0,0
18.03.2019 07:00:00 0,8 -1,9 - 8 4 - - W 1012,4 35 0,0
18.03.2019 06:00:00 1,5 -1,4 - 8 4 - - WSW 1012,0 40 0,0
18.03.2019 05:00:00 1,1 -1,6 - 8 4 - - WSW 1011,6 30 0,0
18.03.2019 04:00:00 1,4 -1,8 - 11 6 - - SW 1011,4 40 0,0
18.03.2019 03:00:00 2,5 -2,1 - 15 8 - - W 1010,9 40 0,0
18.03.2019 02:00:00 3,4 -1,4 - 15 8 - - WNW 1010,5 35 0,0
18.03.2019 01:00:00 3,6 -0,2 - 16 9 - - WNW 1009,9 30 0,0
18.03.2019 00:00:00 3,9 -1,5 - 16 9 - - NW 1009,4 12 0,0
17.03.2019 23:00:00 3,9 -0,3 - 18 10 - - NW 1008,7 35 0,0
17.03.2019 22:00:00 3,8 -1,4 - 21 11 - - NW 1008,2 14 0,0
17.03.2019 21:00:00 4,3 -0,2 - 34 18 46 25 NW 1007,6 21 0,0
17.03.2019 20:00:00 4,6 -0,5 - 28 15 - - NW 1006,7 19 0,0
17.03.2019 19:00:00 4,0 0,5 - 35 19 52 28 NW 1005,4 15 0,0
17.03.2019 18:00:00 3,9 0,8 - 29 16 57 31 NW 1004,0 15 0,2
17.03.2019 17:00:00 4,2 0,5 - 37 20 67 36 NW 1002,7 17 0,2
17.03.2019 16:00:00 6,0 0,9 - 46 25 61 33 NW 1001,2 12 0,0
17.03.2019 15:00:00 5,0 0,9 - 46 25 67 36 NW 1000,2 25 0,0
17.03.2019 14:00:00 6,3 0,2 - 48 26 65 35 NNW 998,7 22 0,0
17.03.2019 13:00:00 6,7 1,9 - 48 26 72 39 NNW 997,2 20 0,0
17.03.2019 12:00:00 5,4 2,0 - 42 23 67 36 NW 995,5 18 0,0
17.03.2019 11:00:00 6,3 3,9 - 41 22 57 31 NNW 993,7 21 0,0
17.03.2019 10:00:00 5,1 2,7 - 44 24 61 33 NNW 992,2 23 0,0
17.03.2019 09:00:00 4,7 3,8 4,5 21 11 - - NW 990,4 29 0,4
17.03.2019 08:00:00 4,0 3,3 - 18 10 - - NW 988,7 30 0,2
17.03.2019 07:00:00 3,5 2,8 - 21 11 - - W 987,3 35 0,0
17.03.2019 06:00:00 3,2 2,4 - 18 10 - - NW 986,3 45 0,2
17.03.2019 05:00:00 3,2 2,4 - 26 14 - - W 985,4 40 0,2
17.03.2019 04:00:00 2,6 2,1 - 24 13 - - W 984,9 4,5 0,2
17.03.2019 03:00:00 2,1 1,2 - 26 14 - - W 984,4 50 0,4
17.03.2019 02:00:00 2,1 1,7 - 18 10 - - W 984,1 6 0,8
17.03.2019 01:00:00 2,1 1,7 - 28 15 - - W 983,9 45 0,0
17.03.2019 00:00:00 1,1 0,8 - 22 12 - - W 983,7 40 0,4
16.03.2019 23:00:00 1,2 1,1 - 21 11 - - WNW 983,8 40 1,0
16.03.2019 22:00:00 0,6 0,5 - 15 8 - - W 984,0 18 0,6
16.03.2019 21:00:00 0,3 0,2 - 15 8 - - WNW 984,1 3,6 1,0
16.03.2019 20:00:00 0,4 0,3 - 13 7 - - WNW 984,3 8 0,8
16.03.2019 19:00:00 0,4 0,1 - 13 7 - - W 984,3 10 1,0
16.03.2019 18:00:00 0,5 -0,1 - 13 7 - - NW 984,5 5 1,8
16.03.2019 17:00:00 2,9 1,0 - 11 6 - - NW 984,6 9 0,2
16.03.2019 16:00:00 3,4 0,6 - 8 4 - - N 985,0 29 0,0
16.03.2019 15:00:00 3,9 -0,2 - 4 2 - - N 985,8 30 0,0
16.03.2019 14:00:00 4,2 0,6 - 8 4 - - SW 986,7 24 0,0
16.03.2019 13:00:00 4,3 1,1 - 15 8 - - S 987,5 20 0,0
16.03.2019 12:00:00 4,8 1,1 - 18 10 - - SSW 988,4 45 0,0
16.03.2019 11:00:00 4,8 1,7 - 18 10 - - SSW 989,1 30 0,0
16.03.2019 10:00:00 4,5 1,7 - 16 9 - - SSW 990,1 22 0,0
16.03.2019 09:00:00 3,9 1,4 4,7 15 8 - - SSW 990,5 30 0,0
16.03.2019 08:00:00 3,5 1,1 - 15 8 - - SSW 991,3 30 0,0
16.03.2019 07:00:00 3,0 0,7 - 16 9 - - SSW 991,9 35 0,0
16.03.2019 06:00:00 2,5 0,1 - 5 3 - - SSE 992,6 29 0,0

tt = Température de l'air
td = dewpoint
tt -20cm = Température de l'air -20cm
ff = Vitesse du vent
fx = gusts
dd = Direction du vent
ppp = reduced air pressure
vv = visibility
rr = Quantités de précipitations

stations d'obs. à proximité